Find Starlink 5984

NORAD ID: 56329 Int'l Des: 2023-058 Owner: SPXS Country: US Constellation: starlink operational
LEOCIRCULARRETROGRADESSO

当前视图

正在加载3D地球...

About Starlink 5984

Starlink 5984 (NORAD 56329) is a starlink constellation satellite (v1.5) launched Apr 27, 2023 by SPXS of US. It operates in LEO, CIRCULAR, RETROGRADE, SSO orbit with a mass of 300.00 kg.

关于 Starlink 5984

正在加载描述...

即将过境

Passes for default location (London). Set your location on the main map for personalized predictions.

高度历史

Loading altitude history...

两行轨道根数

1 56329U 23058N 26170.93778196 -.00000043 00000-0 97074-6 0 9990
2 56329 97.3426 170.9540 0002042 86.2903 273.8558 15.05654011173580
Epoch: Jun 19, 2026 • Age: 37 hours

当前状态

高度 551.3 km
速度 7.59 km/s
星下点 13.88°N, 92.13°E
发射日期 Apr 27, 2023
运行时间 3.1 years
类型 internet

技术详情

分类 Payload
质量 300.00 kg
干质量 260.00 kg
总质量 300.00 kg
长度 0.20 m
直径 2.80 m
跨度 9.00 m
形状 Box + pan
制造商 SPXS
平台类型 Starlink
阶段状态 In Orbit
所有者/国家 SPXS/US

Most Searched